Weather History for Ohio State University, OH

Change the Weather History Date:

Tuesday, February 4, 2014

  Actual Average Record
Temperature  
Mean Temperature 23 °F -  
Max Temperature 30 °F 37 °F 55 °F (2008)
Min Temperature 16 °F 22 °F 1 °F (2007)
Degree Days  
Heating Degree Days 42    
Moisture  
Dew Point 17 °F    
Average Humidity 75    
Maximum Humidity 92    
Minimum Humidity 56    
Precipitation  
Precipitation 0.25 in - - ()
Sea Level Pressure  
Sea Level Pressure 30.23 in    
Wind  
Wind Speed 8 mph (NE)    
Max Wind Speed 17 mph    
Max Gust Speed 25 mph    
Visibility 6 miles    
Events Fog , Snow    
Averages and records for this station are not official NWS values.
T = Trace of Precipitation, MM = Missing Value Source: NWS Daily Summary

Daily Weather History Graph

Daily Weather History Graph

Search for Another Location

Airport:

Trip Planner

Search our weather history database for the weather conditions in past years. The results will help you decide how hot, cold, wet, or windy it might be!

Date:

Astronomy

Feb. 04, 2014 Rise Set
Actual Time 7:37 AM EST 5:55 PM EST
Civil Twilight 7:09 AM EST 6:23 PM EST
Nautical Twilight 6:37 AM EST 6:55 PM EST
Astronomical Twilight 6:05 AM EST 7:27 PM EST
Moon 10:15 AM EST (2/4) 11:48 PM EST (2/4)
Length of Visible Light 11h 13m
Length of Day
10h 17m
Waxing Crescent, 29% of the Moon is Illuminated
Feb 4
Waxing Crescent
Feb 6
First Quarter
Feb 14
Full
Feb 22
Last Quarter
Mar 1
New

Hourly Weather History & Observations

Time (EST) Temp. Windchill Dew Point Humidity Pressure Visibility Wind Dir Wind Speed Gust Speed Precip Events Conditions
12:53 AM 16.0 °F 7.4 °F 12.0 °F 84% 30.39 in 10.0 mi North 5.8 mph - N/A   Clear
1:53 AM 16.0 °F 7.4 °F 12.0 °F 84% 30.39 in 9.0 mi North 5.8 mph - N/A   Clear
2:53 AM 17.1 °F 8.7 °F 12.0 °F 81% 30.37 in 9.0 mi NE 5.8 mph - N/A   Clear
3:53 AM 17.1 °F 11.7 °F 12.9 °F 84% 30.38 in 9.0 mi North 3.5 mph - N/A   Clear
4:53 AM 18.0 °F - 14.0 °F 84% 30.38 in 9.0 mi Calm Calm - N/A   Clear
5:53 AM 19.0 °F 13.9 °F 14.0 °F 81% 30.40 in 8.0 mi NNW 3.5 mph - N/A   Clear
6:53 AM 19.0 °F 12.3 °F 15.1 °F 85% 30.40 in 8.0 mi NNE 4.6 mph - N/A   Clear
7:53 AM 19.9 °F 13.4 °F 15.1 °F 81% 30.38 in 6.0 mi NE 4.6 mph - N/A   Haze
8:53 AM 21.9 °F 15.7 °F 16.0 °F 78% 30.43 in 7.0 mi NNE 4.6 mph - N/A   Clear
9:53 AM 24.1 °F 15.2 °F 17.1 °F 75% 30.39 in 6.0 mi NE 8.1 mph - N/A   Haze
10:53 AM 26.1 °F 18.4 °F 17.1 °F 69% 30.37 in 8.0 mi ENE 6.9 mph - N/A   Mostly Cloudy
11:53 AM 28.0 °F 17.5 °F 17.1 °F 63% 30.32 in 10.0 mi ENE 12.7 mph - N/A   Overcast
12:53 PM 28.9 °F 21.1 °F 16.0 °F 58% 30.28 in 10.0 mi ENE 8.1 mph - N/A   Partly Cloudy
1:53 PM 28.9 °F 22.8 °F 16.0 °F 58% 30.27 in 10.0 mi NE 5.8 mph - N/A   Mostly Cloudy
2:53 PM 30.0 °F 22.4 °F 17.1 °F 59% 30.26 in 10.0 mi North 8.1 mph - N/A   Scattered Clouds
3:53 PM 28.9 °F 18.6 °F 16.0 °F 58% 30.25 in 10.0 mi NNE 12.7 mph - N/A   Partly Cloudy
4:53 PM 28.9 °F 19.2 °F 16.0 °F 58% 30.21 in 10.0 mi NE 11.5 mph - N/A   Overcast
5:53 PM 28.0 °F 18.6 °F 15.1 °F 58% 30.17 in 10.0 mi NE 10.4 mph - N/A   Mostly Cloudy
6:53 PM 28.0 °F 18.6 °F 15.1 °F 58% 30.21 in 10.0 mi NNE 10.4 mph - N/A   Overcast
7:53 PM 28.0 °F 17.5 °F 15.1 °F 58% 30.15 in 7.0 mi NNE 12.7 mph 21.9 mph 0.00 in Snow Light Snow
8:00 PM 28.0 °F 17.0 °F 14.0 °F 56% 30.11 in 9.0 mi NNE 13.8 mph - 0.00 in   Overcast
8:08 PM 27.0 °F 14.3 °F 16.0 °F 63% 30.11 in 1.5 mi NNE 17.3 mph 25.3 mph 0.00 in Snow Light Snow
8:14 PM 25.0 °F 12.2 °F 19.0 °F 78% 30.10 in 0.8 mi NNE 16.1 mph 25.3 mph 0.00 in Snow Light Snow
8:37 PM 24.1 °F 11.5 °F 21.0 °F 88% 30.07 in 0.5 mi ENE 15.0 mph - 0.00 in Fog , Snow Snow
8:53 PM 24.1 °F 13.1 °F 21.9 °F 91% 30.10 in 0.5 mi ENE 11.5 mph - 0.01 in Fog , Snow Snow
9:04 PM 24.1 °F 12.0 °F 21.9 °F 91% 30.05 in 0.2 mi NE 13.8 mph - 0.01 in Fog , Snow Snow
9:53 PM 24.1 °F 13.1 °F 21.9 °F 91% 30.09 in 0.5 mi NE 11.5 mph - 0.08 in Fog , Snow Snow
10:29 PM 24.1 °F 12.0 °F 21.9 °F 91% 30.01 in 0.2 mi NE 13.8 mph - 0.05 in Fog , Snow Snow
10:51 PM 24.8 °F 14.6 °F 21.2 °F 86% 30.00 in 0.5 mi NE 10.4 mph - 0.08 in Fog , Snow Snow
10:53 PM 24.1 °F 12.5 °F 21.9 °F 91% 30.04 in 0.5 mi ENE 12.7 mph - 0.08 in Fog , Snow Snow
11:53 PM 25.0 °F 13.1 °F 23.0 °F 92% 30.00 in 0.5 mi NE 13.8 mph - 0.08 in Fog , Snow Snow